Weather in Bystryagi

Russia / Kirov Oblast     58°19′44″N   48°44′18″E
temp.,
°C
wind,
m/s
gust,
m/s
humid.,
%
clouds,
%
prec.,
mm/h
press.,
hPa
HPBL,
m
12 april, mon
mon1200:00+1ssw229973 0.0 103440
03:000sw1110081 0.0 103729
06:00+1ne129868 0.0 103866
09:00+6ene11730 0.0 1039303
12:00+9ne11534 0.0 1039738
15:00+10e124895 0.0 1039878
18:00+6ese2584100 0.0 1039100
21:00+3se2692100 0.0 1039109
13 april, tue
tue1300:00+2se2695100 0.0 1039107
03:00+2se269692 0.0 1038114
06:00+4sse31093100 0.0 1037258
09:00+7sse3982100 0.0 1035383
12:00+12s4873100 0.0 1033564
15:00+14s4875100 0.0 1031613
18:00+12s399098 0.0 1030321
21:00+9s3119495 0.0 1030241
14 april, wed
wed1400:00+8ssw3109496 0.0 1029189
03:00+6ssw379498 0.0 1029127
06:00+6ssw279065 0.0 1029138
09:00+12ssw366547 0.0 1028336
12:00+16ssw474932 0.0 1027790
15:00+17ssw46445 0.0 10251124
18:00+13ssw266250 0.0 1024105
21:00+9s387529 0.0 1024126
15 april, thu
thu1500:00+7ssw39785 0.0 1023143
03:00+6ssw26825 0.0 102399
06:00+6ssw26827 0.0 1022116
09:00+12sw35615 0.0 1021366
12:00+16sw23452 0.0 1020968
15:00+17wsw23360 0.0 10181662
18:00+14wsw00512 0.0 101710
21:00+10nnw12685 0.0 101735
16 april, fri
fri1600:00+6nne37945 0.0 1017206
03:00+4nne369724 0.0 1017181
06:00+5nne3792100 0.0 1017311
09:00+5n4588100 0.1 1017549
12:00+3n31097100 2.6 1018545
15:00+8n595197 3.1 10182027
18:00+5n510550 0.0 10191028
21:00+2nnw411700 0.0 1020388